Regional Weather Roundup
Issued by NWS

Home | Current Version | Previous Version | Text Only | Print | Product List | Glossary Off
Versions: 1 2 3 4 5 6 7 8 9 10 11 12 13 14 15 16 17 18 19 20 21 22 23 24 25 26 27 28

000
ASUS45 KCYS 230610
RWRWY

WYOMING REGIONAL WEATHER ROUNDUP
NATIONAL WEATHER SERVICE CHEYENNE WY
1200 AM MDT TUE MAY 23 2017

NOTE:  "FAIR" INDICATES FEW OR NO CLOUDS BELOW 12,000 FEET
WITH NO SIGNIFICANT WEATHER AND/OR OBSTRUCTIONS TO VISIBILITY.

WYZ001-230700-
YELLOWSTONE NATIONAL PARK

CITY           SKY/WX    TMP DP  RH WIND       PRES   REMARKS
LK YELLOWSTONE   N/A     30  29  96 CALM      30.37S
6HR MIN TEMP:  30; 6HR MAX TEMP:  48; 6HR PCP:  0.01;

W YELLOWSTONE  NOT AVBL

$$
WYZ002>013-054>058-071-098>099-230700-
NORTHERN WYOMING

CITY           SKY/WX    TMP DP  RH WIND       PRES   REMARKS
JACKSON        MOCLDY    41  34  75 N7        30.31S
CODY           FAIR      42  36  79 S6        30.28S
GREYBULL       FAIR      48  40  73 VRB3      30.22S
6HR MIN TEMP:  48; 6HR MAX TEMP:  64; 6HR PCP:  0.02;

WORLAND        FAIR      47  39  74 W3        30.24S
6HR MIN TEMP:  43; 6HR MAX TEMP:  60;

SHERIDAN       FAIR      40  35  83 CALM      30.23F
6HR MIN TEMP:  39; 6HR MAX TEMP:  60;

BUFFALO        FAIR      44  36  73 W3        30.26S
6HR MIN TEMP:  44; 6HR MAX TEMP:  54; 6HR PCP:  0.01;

GILLETTE       CLOUDY    46  42  86 W8        30.22R
6HR MIN TEMP:  42; 6HR MAX TEMP:  53; 6HR PCP:  0.05;

HULETT         FAIR      39  36  87 S3        30.21S
NEWCASTLE      FAIR      37  36  93 CALM      30.21S

$$
WYZ014>020-022>026-101>103-230700-
CENTRAL WYOMING

CITY           SKY/WX    TMP DP  RH WIND       PRES   REMARKS
BIG PINEY      MOCLDY    42  35  76 S8        30.34S
6HR MIN TEMP:  42; 6HR MAX TEMP:  59;

PINEDALE       FAIR      39  30  70 NW8       30.33R WCI  34
DUBOIS         FAIR      32  30  93 NW3       30.34S
LANDER         CLOUDY    42  33  70 SW6       30.31R
6HR MIN TEMP:  40; 6HR MAX TEMP:  46; 6HR PCP: TRACE;

RIVERTON       FAIR      40  35  83 NW10      30.30S WCI  33
6HR MIN TEMP:  40; 6HR MAX TEMP:  48; 6HR PCP: TRACE;

CASPER         MOCLDY    40  38  93 SW9       30.27F WCI  34
6HR MIN TEMP:  39; 6HR MAX TEMP:  46; 6HR PCP:  0.11;

DOUGLAS        CLOUDY    41  38  89 NW9       30.26R
6HR MIN TEMP:  40; 6HR MAX TEMP:  52; 6HR PCP: TRACE;


$$
WYZ021-027>030-104>119-230700-
SOUTHERN WYOMING

CITY           SKY/WX    TMP DP  RH WIND       PRES   REMARKS
EVANSTON       CLOUDY    46  36  68 E15       30.32R
6HR MIN TEMP:  46; 6HR MAX TEMP:  64; 6HR PCP: TRACE;

ROCK SPRINGS   CLOUDY    40  34  79 S5        30.35R
6HR MIN TEMP:  39; 6HR MAX TEMP:  47; 6HR PCP: TRACE;

DIXON            N/A     35  32  88 CALM      30.37R
RAWLINS        CLOUDY    36  34  92 S7        30.34F WCI  30
6HR MIN TEMP:  36; 6HR MAX TEMP:  41; 6HR PCP:  0.01;

LARAMIE        FAIR      33  30  88 NW13      30.28S WCI  24
6HR MIN TEMP:  33; 6HR MAX TEMP:  39; 6HR PCP: TRACE;

CHEYENNE       FAIR      38  33  82 NW12      30.25S WCI  30
6HR MIN TEMP:  38; 6HR MAX TEMP:  46; 6HR PCP: TRACE;

TORRINGTON     FAIR      42  38  85 NW8       30.20S
6HR MIN TEMP:  41; 6HR MAX TEMP:  57; 6HR PCP: TRACE;

PINE BLUFFS    FAIR      37  36  93 NW9       30.23S WCI  31

$$




USA.gov is the U.S. government's official web portal to all federal, state and local government web resources and services.